User: anonymous   Login
Location: Mentone
(34.5413°N, 85.5351°W)
Time: 10:42:33
(UTC-05:00)
Language:

Cosmos 2150 Rocket - Orbit

View from above orbital plane
View from above orbital plane
View from above satellite
View from above satellite

Ground track
Ground track

The orbit data is extracted from the following two-line orbital elements,

1 21419U 91041B   17177.87932192 +.00000041 +00000-0 +23737-4 0  9997
2 21419 074.0408 281.8136 0041389 207.9160 151.9772 14.33865207361596
Epoch (UTC): 26 June 2017 21:06:13
Eccentricity: 0.0041389
inclination: 74.0408°
perigee height: 749 km
apogee height: 808 km
right ascension of ascending node: 281.8136°
argument of perigee: 207.9160°
revolutions per day: 14.33865207
mean anomaly at epoch: 151.9772°
orbit number at epoch: 36159

The dashed part of the orbit path shows where the satellite is in the earth's shadow,  

DLR